Regional Weather Roundup
Issued by NWS

Home | Current Version | Previous Version | Graphics & Text | Print | Product List | Glossary On
Versions: 1 2 3 4 5 6 7 8 9 10 11 12 13 14 15 16 17 18 19 20 21 22 23 24 25 26 27 28 29 30 31 32 33 34 35 36 37 38 39 40 41 42 43 44 45 46 47 48 49 50
000
ASUS43 KIND 210759
RWRIN

WEATHER ROUNDUP FOR INDIANA
NATIONAL WEATHER SERVICE INDIANAPOLIS IN
300 AM EST FRI NOV 21 2014

NOTE: "FAIR" INDICATES FEW OR NO CLOUDS BELOW 12,000 FEET WITH NO
SIGNIFICANT WEATHER AND/OR OBSTRUCTIONS TO VISIBILITY.

* - STATION DOES NOT REPORT WEATHER SUCH AS PRECIPITATION OR FOG.

+ - STATION NOT QUALITY CONTROLLED BY THE NATIONAL WEATHER SERVICE.
    USE DATA WITH CAUTION...ESPECIALLY DEWPOINT AND RELATIVE
    HUMIDITY OBSERVATIONS.

INZ001>003-010>013-019-020-210900-
NORTHWEST INDIANA

CITY           SKY/WX    TMP DP  RH WIND       PRES   REMARKS
KNOX *+        CLEAR     12   5  71 W8        30.34R WCI   1
MONTICELLO +   CLEAR     11   6  78 NW6       30.36R WCI   2
VALPARAISO     NOT AVBL

$$

LMZ046-743>745-210900-
SOUTHERN LAKE MICHIGAN

STATION/POSITION TIME  TEMP WIND        PRES
                       AIR  DIR/SP/G
                 (UTC) (F)  (DEG/KT/KT) (MB)
MICHIGAN CITY    0700   22  300/ 17/ 21   N/A

$$

INZ004-005-014>016-021>024-210900-
NORTH CENTRAL INDIANA

CITY           SKY/WX    TMP DP  RH WIND       PRES   REMARKS
GOSHEN         MOCLDY    20  10  65 W9        30.30R WCI   9
SOUTH BEND     CLOUDY    22  11  62 NW7       30.32R WCI  13

$$

INZ006>009-017-018-025>027-210900-
NORTHEAST INDIANA

CITY           SKY/WX    TMP DP  RH WIND       PRES   REMARKS
ANGOLA *+      CLOUDY    19  14  79 CALM      30.26R
FORT WAYNE     CLEAR     15   6  67 W9        30.32R WCI   3

$$

INZ028-029-035-036-043>045-051>053-210900-
WEST CENTRAL INDIANA

CITY           SKY/WX    TMP DP  RH WIND       PRES   REMARKS
GREENCASTLE +  CLEAR     19   9  63 CALM      30.37R
LAFAYETTE      CLEAR     15   6  67 NW7       30.37R WCI   5
TERRE HAUTE    CLEAR     19  10  68 N5        30.39R WCI  12

$$

INZ030>032-037>040-046>048-054>057-064-065-210900-
CENTRAL INDIANA

CITY           SKY/WX    TMP DP  RH WIND       PRES   REMARKS
INDIANAPOLIS   CLEAR     17   7  64 NW8       30.35R WCI   7
-EAGLE CREEK   CLEAR     18   8  65 NW7       30.35R WCI   9
KOKOMO *+      CLEAR     14   5  67 W8        30.35R WCI   3
MT COMFORT *+  CLEAR     16   1  53 NW5       30.35R WCI   9
SHELBYVILLE    CLEAR     17   8  67 NW6       30.35R WCI   9

$$

INZ033-034-041-042-049-050-058-059-210900-
EAST CENTRAL INDIANA

CITY           SKY/WX    TMP DP  RH WIND       PRES   REMARKS
MUNCIE         CLEAR     15   6  67 W8        30.33R WCI   4

$$

INZ060-061-067>069-081>083-085>088-210900-
SOUTHWEST INDIANA

CITY           SKY/WX    TMP DP  RH WIND       PRES   REMARKS
EVANSVILLE     CLEAR     21  17  84 CALM      30.40R
HUNTINGBURG *+ CLEAR     19  16  86 CALM      30.39R

$$

INZ062-063-066-070>080-084-089>092-210900-
SOUTH CENTRAL AND SOUTHEAST INDIANA

CITY           SKY/WX    TMP DP  RH WIND       PRES   REMARKS
BLOOMINGTON    CLEAR     19  12  74 CALM      30.36R

$$




USA.gov is the U.S. government's official web portal to all federal, state and local government web resources and services.